{"data":{"norad_id":60915,"epoch":"2026-05-25T04:45:16.456896Z","epoch_age_seconds":65038,"freshness":"FRESH","line1":"1 60915U 24154N   26145.19810714 -.00000085  00000+0  41544-5 0  9992","line2":"2 60915  53.1586 113.9013 0001046  69.2921 290.8209 15.69698594100529","mean_motion":15.69698594,"eccentricity":0.0001046,"inclination_deg":53.1586,"raan_deg":113.9013,"arg_perigee_deg":69.2921,"mean_anomaly_deg":290.8209,"bstar":4.1544e-6,"rev_number":10052,"period_min":91.737356808768,"perigee_km":359.05460626102,"apogee_km":360.46417418586,"semimajor_km":6737.8963902234,"source":"CELESTRAK","updated_at":"2026-05-25T13:38:19.314492Z"}}